Weather History for Springfield, VT

Change the Weather History Date:

Wednesday, February 27, 2013

  Actual Average Record
Temperature  
Mean Temperature 34 °F 26 °F  
Max Temperature 36 °F 36 °F 48 °F (2009)
Min Temperature 31 °F 16 °F -9 °F (2003)
Degree Days  
Heating Degree Days 31 39  
Month to date heating degree days 1098 1136  
Since 1 July heating degree days 4822 5408  
Moisture  
Dew Point 31 °F    
Average Humidity 85    
Maximum Humidity 100    
Minimum Humidity 69    
Precipitation  
Precipitation 0.45 in 0.08 in 0.45 in (2013)
Month to date precipitation 1.77 2.60  
Year to date precipitation 3.10 5.52  
Sea Level Pressure  
Sea Level Pressure 29.86 in    
Wind  
Wind Speed 5 mph (NE)    
Max Wind Speed 18 mph    
Max Gust Speed 24 mph    
Visibility 4 miles    
Events Fog , Rain , Snow    
T = Trace of Precipitation, MM = Missing Value Source: NWS Daily Summary

Daily Weather History Graph

Daily Weather History Graph

Search for Another Location

Airport:

Trip Planner

Search our weather history database for the weather conditions in past years. The results will help you decide how hot, cold, wet, or windy it might be!

Date:

Astronomy

Feb. 27, 2013 Rise Set
Actual Time 6:29 AM EST 5:36 PM EST
Civil Twilight 6:00 AM EST 6:05 PM EST
Nautical Twilight 5:27 AM EST 6:38 PM EST
Astronomical Twilight 4:54 AM EST 7:11 PM EST
Moon 8:00 PM EST (2/27) 6:58 AM EST (2/27)
Length of Visible Light 12h 04m
Length of Day
11h 07m
Waning Gibbous, 96% of the Moon is Illuminated
Feb 27
Waning Gibbous
Mar 4
Last Quarter
Mar 11
New
Mar 19
First Quarter
Mar 27
Full

Hourly Weather History & Observations

Time (EST) Temp. Windchill Dew Point Humidity Pressure Visibility Wind Dir Wind Speed Gust Speed Precip Events Conditions
12:25 AM 33.8 °F - 24.8 °F 70% 30.14 in 10.0 mi Calm Calm - N/A   Overcast
1:22 AM 33.8 °F 29.6 °F 24.8 °F 70% 30.12 in 10.0 mi East 4.6 mph - N/A   Overcast
1:54 AM 33.1 °F 30.0 °F 25.0 °F 72% 30.12 in 10.0 mi ENE 3.5 mph - N/A   Overcast
2:54 AM 33.1 °F 30.0 °F 25.0 °F 72% 30.13 in 10.0 mi NNE 3.5 mph - N/A   Overcast
3:43 AM 32.0 °F 26.4 °F 28.4 °F 87% 30.09 in 1.0 mi ENE 5.8 mph - 0.01 in Snow Light Snow
3:49 AM 32.0 °F 27.5 °F 28.4 °F 87% 30.09 in 0.8 mi ENE 4.6 mph - 0.02 in Snow Light Snow
3:50 AM 32.0 °F 28.7 °F 28.0 °F 85% 30.11 in 0.8 mi NE 3.5 mph - 0.02 in Snow Light Snow
4:35 AM 32.0 °F - 28.4 °F 87% 30.05 in 1.0 mi Calm Calm - 0.05 in Snow Light Snow
4:44 AM 32.0 °F 27.5 °F 28.4 °F 87% 30.05 in 0.8 mi Variable 4.6 mph - 0.07 in Snow Light Snow
4:54 AM 30.9 °F 27.5 °F 28.9 °F 92% 30.07 in 0.5 mi Variable 3.5 mph - 0.09 in Fog , Snow Snow
5:10 AM 32.0 °F - 28.4 °F 87% 30.04 in 1.2 mi Calm Calm - 0.02 in Snow Light Snow
5:26 AM 32.0 °F 27.5 °F 28.4 °F 87% 30.03 in 0.8 mi NNE 4.6 mph - 0.03 in Snow Light Snow
5:43 AM 32.0 °F 27.5 °F 28.4 °F 87% 30.02 in 1.2 mi Variable 4.6 mph - 0.05 in Snow Light Snow
5:49 AM 32.0 °F 28.7 °F 28.4 °F 87% 30.02 in 2.0 mi Variable 3.5 mph - 0.05 in Snow Light Snow
5:54 AM 32.0 °F - 28.9 °F 88% 30.04 in 3.0 mi Calm Calm - 0.05 in Snow Light Snow
6:04 AM 32.0 °F 27.5 °F 28.4 °F 87% 30.01 in 2.0 mi NNE 4.6 mph - 0.00 in Snow Light Snow
6:10 AM 32.0 °F 27.5 °F 28.4 °F 87% 30.01 in 1.8 mi Variable 4.6 mph - 0.01 in Snow Light Snow
6:36 AM 32.0 °F 25.6 °F 28.4 °F 87% 29.99 in 5.0 mi NE 6.9 mph - 0.01 in Snow Light Snow
6:45 AM 32.0 °F 27.5 °F 28.4 °F 87% 29.99 in 1.8 mi NE 4.6 mph - 0.01 in Snow Light Snow
6:54 AM 32.0 °F - 28.9 °F 88% 30.01 in 1.0 mi Calm Calm - 0.02 in Snow Light Snow
7:01 AM 32.0 °F 27.5 °F 28.4 °F 87% 29.98 in 3.0 mi NE 4.6 mph - 0.00 in Snow Light Snow
7:54 AM 33.1 °F 26.9 °F 28.9 °F 85% 29.97 in 8.0 mi ENE 6.9 mph - 0.00 in Snow Light Snow
8:13 AM 33.8 °F 28.6 °F 28.4 °F 81% 29.95 in 2.5 mi ENE 5.8 mph - 0.00 in Snow Light Snow
8:21 AM 33.8 °F 29.6 °F 30.2 °F 87% 29.95 in 0.8 mi NE 4.6 mph - 0.00 in Snow Light Snow
8:30 AM 33.8 °F 27.7 °F 30.2 °F 87% 29.94 in 0.5 mi NE 6.9 mph - 0.01 in Fog , Snow Snow
8:54 AM 33.1 °F 26.9 °F 30.0 °F 89% 29.95 in 1.2 mi NE 6.9 mph - 0.04 in Snow Light Snow
8:58 AM 33.8 °F 29.6 °F 30.2 °F 87% 29.92 in 0.8 mi NE 4.6 mph - 0.01 in Snow Light Snow
9:17 AM 33.8 °F 30.8 °F 30.2 °F 87% 29.90 in 2.0 mi Variable 3.5 mph - 0.02 in Snow Light Snow
9:26 AM 33.8 °F 29.6 °F 30.2 °F 87% 29.89 in 5.0 mi NE 4.6 mph - 0.02 in Snow Light Snow
9:47 AM 33.8 °F 26.4 °F 30.2 °F 87% 29.88 in 9.0 mi ENE 9.2 mph - 0.02 in   Overcast
9:57 AM 33.8 °F 26.4 °F 30.2 °F 87% 29.88 in 1.5 mi ENE 9.2 mph - 0.01 in Snow Light Snow
10:16 AM 33.8 °F 28.6 °F 30.2 °F 87% 29.88 in 2.0 mi NE 5.8 mph - 0.03 in Snow Light Snow
10:27 AM 33.8 °F 30.8 °F 30.2 °F 87% 29.88 in 3.0 mi NE 3.5 mph - 0.04 in Snow Light Snow
10:47 AM 33.8 °F 27.0 °F 33.8 °F 100% 29.86 in 2.5 mi ENE 8.1 mph - 0.05 in Snow Light Snow
10:54 AM 34.0 °F 28.0 °F 32.0 °F 92% 29.89 in 4.0 mi NE 6.9 mph - 0.05 in Snow Light Snow
11:54 AM 35.1 °F 29.3 °F 35.1 °F 100% 29.86 in 7.0 mi NE 6.9 mph - 0.01 in Rain Light Rain
12:32 PM 35.6 °F 29.2 °F 35.6 °F 100% 29.80 in 6.0 mi NE 8.1 mph - 0.01 in Rain Light Rain
12:42 PM 35.6 °F 28.6 °F 35.6 °F 100% 29.79 in 6.0 mi ENE 9.2 mph 16.1 mph 0.01 in Rain Light Rain
12:54 PM 36.0 °F 30.3 °F 36.0 °F 100% 29.81 in 6.0 mi NE 6.9 mph 18.4 mph 0.02 in Rain Light Rain
1:12 PM 35.6 °F 29.2 °F 35.6 °F 100% 29.77 in 9.0 mi ENE 8.1 mph - 0.00 in Rain Light Rain
1:39 PM 35.6 °F 29.2 °F 35.6 °F 100% 29.76 in 6.0 mi ENE 8.1 mph - 0.02 in Rain Light Rain
1:54 PM 36.0 °F 32.1 °F 35.1 °F 97% 29.78 in 7.0 mi NNE 4.6 mph - 0.02 in Rain Light Rain
2:04 PM 35.6 °F 30.7 °F 35.6 °F 100% 29.76 in 6.0 mi Variable 5.8 mph - 0.01 in Rain Light Rain
2:19 PM 35.6 °F 29.9 °F 35.6 °F 100% 29.76 in 6.0 mi NE 6.9 mph - 0.02 in Rain Light Rain
2:32 PM 35.6 °F 29.2 °F 35.6 °F 100% 29.76 in 6.0 mi ENE 8.1 mph - 0.03 in Rain Light Rain
2:46 PM 35.6 °F 29.9 °F 35.6 °F 100% 29.76 in 6.0 mi NE 6.9 mph - 0.03 in Rain Light Rain
2:54 PM 35.1 °F 26.9 °F 35.1 °F 100% 29.78 in 6.0 mi ENE 11.5 mph 17.3 mph 0.04 in Rain Light Rain
3:54 PM 35.1 °F 26.4 °F 34.0 °F 96% 29.74 in 7.0 mi NE 12.7 mph 18.4 mph 0.01 in   Overcast
4:38 PM 33.8 °F 26.4 °F 33.8 °F 100% 29.72 in 1.8 mi East 9.2 mph 19.6 mph 0.01 in Snow Light Snow
4:54 PM 34.0 °F 26.0 °F 33.1 °F 96% 29.74 in 1.5 mi ENE 10.4 mph 19.6 mph 0.02 in Snow Light Snow
4:57 PM 33.8 °F 27.0 °F 33.8 °F 100% 29.72 in 2.0 mi ENE 8.1 mph 18.4 mph 0.00 in Snow Light Snow
5:00 PM 33.8 °F 28.6 °F 33.8 °F 100% 29.72 in 3.0 mi Variable 5.8 mph 18.4 mph 0.00 in Snow Light Snow
5:54 PM 34.0 °F 28.8 °F 33.1 °F 96% 29.73 in 4.0 mi Variable 5.8 mph 17.3 mph 0.00 in Snow Light Snow
6:54 PM 34.0 °F - 33.1 °F 96% 29.73 in 9.0 mi Calm Calm - 0.00 in   Overcast
7:54 PM 33.1 °F - 33.1 °F 100% 29.72 in 3.0 mi Calm Calm - 0.01 in Snow Light Snow
8:00 PM 33.8 °F - 33.8 °F 100% 29.69 in 2.5 mi Calm Calm - 0.00 in Snow Light Snow
8:21 PM 32.0 °F 27.5 °F 32.0 °F 100% 29.69 in 1.8 mi North 4.6 mph - 0.01 in Snow Light Snow
8:35 PM 32.0 °F - 32.0 °F 100% 29.69 in 2.0 mi Calm Calm - 0.01 in Snow Light Snow
8:47 PM 32.0 °F 27.5 °F 32.0 °F 100% 29.69 in 3.0 mi Variable 4.6 mph - 0.01 in Snow Light Snow
9:01 PM 32.0 °F - 32.0 °F 100% 29.69 in 4.0 mi Calm Calm - 0.00 in Snow Light Snow
9:08 PM 32.0 °F - 32.0 °F 100% 29.69 in 2.5 mi Calm Calm - 0.00 in Snow Light Snow
9:15 PM 32.0 °F 28.7 °F 32.0 °F 100% 29.68 in 3.0 mi North 3.5 mph - 0.00 in Snow Light Snow
9:23 PM 32.0 °F 26.4 °F 32.0 °F 100% 29.68 in 3.0 mi NNW 5.8 mph - 0.00 in Snow Light Snow
9:29 PM 32.0 °F 27.5 °F 32.0 °F 100% 29.68 in 2.5 mi ENE 4.6 mph - 0.00 in Snow Light Snow
9:54 PM 32.0 °F 27.5 °F 32.0 °F 100% 29.70 in 3.0 mi NE 4.6 mph - 0.01 in Snow Light Snow
10:21 PM 32.0 °F 28.7 °F 30.2 °F 93% 29.66 in 2.5 mi Variable 3.5 mph - 0.00 in Snow Light Snow
10:42 PM 32.0 °F 27.5 °F 32.0 °F 100% 29.66 in 1.8 mi East 4.6 mph - 0.00 in Snow Light Snow
10:54 PM 32.0 °F 28.7 °F 30.9 °F 96% 29.68 in 2.5 mi ENE 3.5 mph - 0.01 in Snow Light Snow
11:03 PM 32.0 °F - 32.0 °F 100% 29.65 in 3.0 mi Calm Calm - 0.00 in Snow Light Snow
11:54 PM 32.0 °F - 32.0 °F 100% 29.67 in 9.0 mi Calm Calm - 0.00 in   Overcast